Wooster, OH

12:22 AM EST on December 10, 2019 (GMT -0500)
Wayne County

Weather History for KBJJ - October, 2019

Change the Weather History Date:

Thursday, October 24, 2019

  Actual Average Record
Temperature  
Mean Temperature 55 °F -  
Max Temperature 64 °F 57 °F 78 °F (2012)
Min Temperature 46 °F 36 °F 28 °F (2003)
Degree Days  
Heating Degree Days 10    
Growing Degree Days 5 (Base 50)    
Moisture  
Dew Point 38 °F    
Average Humidity 57    
Maximum Humidity 83    
Minimum Humidity 41    
Precipitation  
Precipitation 0.00 in - - ()
Sea Level Pressure  
Sea Level Pressure 30.22 in    
Wind  
Wind Speed 8 mph (WSW)    
Max Wind Speed 12 mph    
Max Gust Speed 18 mph    
Visibility 10 miles    
Events      
Averages and records for this station are not official NWS values.
T = Trace of Precipitation, MM = Missing Value Source: NWS Daily Summary

Daily Weather History Graph

Daily Weather History Graph

Search for Another Location

Airport or City:

Astronomy

Oct. 24, 2019 Rise Set
Actual Time 7:48 AM EDT 6:34 PM EDT
Civil Twilight 7:20 AM EDT 7:02 PM EDT
Nautical Twilight 6:48 AM EDT 7:34 PM EDT
Astronomical Twilight 6:16 AM EDT 8:06 PM EDT
Moon 3:14 AM EDT (10/24) 5:03 PM EDT (10/24)
Length of Visible Light 11h 41m
Length of Day
10h 45m
Waning Crescent, 17% of the Moon is Illuminated
Oct 24
Waning Crescent
Oct 27
New
Nov 4
First Quarter
Nov 12
Full
Nov 19
Last Quarter

Hourly Weather History & Observations

Time (EDT) Temp. Dew Point Humidity Pressure Visibility Wind Dir Wind Speed Gust Speed Precip Events Conditions
12:56 AM 48.9 °F 32.0 °F 52% 30.13 in 10.0 mi SSW 9.2 mph - N/A   Clear
1:56 AM 50.0 °F 32.0 °F 50% 30.15 in 10.0 mi SSW 9.2 mph - N/A   Clear
2:56 AM 48.9 °F 33.1 °F 54% 30.17 in 10.0 mi SSW 8.1 mph - N/A   Clear
3:56 AM 46.9 °F 33.1 °F 59% 30.16 in 10.0 mi SSW 6.9 mph - N/A   Scattered Clouds
4:56 AM 48.0 °F 32.0 °F 54% 30.15 in 10.0 mi SSW 10.4 mph - N/A   Clear
5:56 AM 48.9 °F 32.0 °F 52% 30.16 in 10.0 mi SSW 11.5 mph 18.4 mph N/A   Clear
6:56 AM 48.0 °F 32.0 °F 54% 30.17 in 10.0 mi SSW 6.9 mph - N/A   Mostly Cloudy
7:56 AM 48.0 °F 32.0 °F 54% 30.19 in 10.0 mi SSW 6.9 mph - N/A   Clear
8:56 AM 50.0 °F 33.1 °F 52% 30.22 in 10.0 mi SSW 8.1 mph - N/A   Clear
9:56 AM 53.1 °F 34.0 °F 48% 30.23 in 10.0 mi SSW 11.5 mph - N/A   Mostly Cloudy
10:56 AM 55.9 °F 36.0 °F 47% 30.23 in 10.0 mi Variable 4.6 mph - N/A   Mostly Cloudy
11:56 AM 57.9 °F 37.0 °F 46% 30.24 in 10.0 mi SW 8.1 mph - N/A   Overcast
12:56 PM 63.0 °F 39.0 °F 41% 30.24 in 10.0 mi Variable 6.9 mph - N/A   Clear
1:56 PM 63.0 °F 39.9 °F 43% 30.22 in 10.0 mi West 9.2 mph - N/A   Scattered Clouds
2:56 PM 64.0 °F 41.0 °F 43% 30.22 in 10.0 mi WNW 6.9 mph - N/A   Overcast
3:56 PM 63.0 °F 41.0 °F 45% 30.23 in 10.0 mi West 9.2 mph - N/A   Scattered Clouds
4:56 PM 63.0 °F 42.1 °F 46% 30.23 in 10.0 mi NNW 9.2 mph - N/A   Clear
5:56 PM 57.9 °F 44.1 °F 60% 30.24 in 10.0 mi North 4.6 mph - N/A   Clear
6:56 PM 54.0 °F 44.1 °F 69% 30.25 in 10.0 mi North 5.8 mph - N/A   Mostly Cloudy
7:56 PM 52.0 °F 45.0 °F 77% 30.28 in 10.0 mi North 8.1 mph - N/A   Mostly Cloudy
8:56 PM 51.1 °F 44.1 °F 77% 30.29 in 10.0 mi North 4.6 mph - N/A   Overcast
9:56 PM 50.0 °F 44.1 °F 80% 30.29 in 10.0 mi NNE 4.6 mph - 0.00 in   Overcast
10:56 PM 50.0 °F 44.1 °F 80% 30.31 in 10.0 mi NNE 3.5 mph - N/A   Overcast
11:56 PM 48.9 °F 44.1 °F 83% 30.30 in 10.0 mi NE 3.5 mph - N/A   Mostly Cloudy